Back to catalog

STARLINK-31798

AliveCommunicationsVLEO
NORAD 59635·PAYLOAD·🇺🇸 United States

Launched May 3, 2024 from Cape Canaveral Space Force Station

Loading…

Next Passes (next 24 hours)

TLE

FreshSource: CelesTrak SupGP

Epoch: Sep 14, 2026, 14:16 UTC

1 59635C 24082E   26257.59493056  .00036128  00000+0  13089-2 0  2576
2 59635  43.0018 153.3181 0001553 261.1781 275.3277 15.27550818    14

Track STARLINK-31798 in real time with AllMySat

Download on the App Store